星链-3673 (STARLINK-3673 )

导读

STARLINK-3673是美国SpaceX公司星链(Starlink)星座中的一颗卫星,于2022年3月19日发射入轨。星链星座旨在构建全球低轨卫星互联网,为全球偏远、基础设施匮乏地区提供高速低延迟宽带服务。STARLINK-3673作为组网卫星,运行于近地轨道,助力星座覆盖范围与服务能力拓展,推动全球互联接入实现。

Basic Information
目录编号:
52093
目录名称:
STARLINK-3673
国际标识:
2022-029F
轨道中心:
EARTH
卫星名称:
星链-3673
卫星全名:
星链-3673 (STARLINK-3673 )
卫星状态:
在轨 (已飞行1630 天)
发射日期:
2022-03-19 UTC
国别 :
美国 (US)
星等 :
--
Orbit Information
数据来源 国际轨道数据
星历时间: 2026-09-01T21:41:21+0800
2天前
查看轨道信息
半长轴: 6840.859km
偏心率: 0.0001014
轨道倾角: 53.161°
近地点辐角 88.242°
升交点赤经 6.002°
平近点角 271.870°
近地点: 462.028km
远地点: 463.416km
周期: 93.848分钟
每日圈数: 15.343939
Detailed Information
固有亮度:
5
最大亮度:
2.5
卫星平台:
Starlink v1.5
覆盖范围:
全球
运营商:
太空探索技术公司
运营商所在国:
美国
制造商(研发单位):
太空探索技术公司
制造商所在国:
美国
使用方式:
暂无
Satellite Introduction
星链(Starlink)计划是由太空探索技术公司(SpaceX)提出的一个巨型低轨卫星互联网星座项目,计划在2019年至2024年间在太空搭建由约1.2万颗卫星组成的“星链”网络,其中1584颗将部署在地球上空550千米处的近地轨道,并从2020年开始工作。该卫星仍在工作。
2D Orbit Map
3D Orbit Map
Orbit Altitude Analysis Chart
Orbit Inclination Analysis Chart
Orbit Comprehensive Analysis Chart
View Comprehensive Chart
Conjunction Data List
Event ID Objects TCA Miss Dist (km) Collision Risk Probability Collision Risk Index (CRI) Action
CDM_260904-210805-209306-472921
2026-09-04T
21:08:11+0000
0.659 km
远距离
6.593383E-5 中风险 0.71
CDM_260905-051705-209306-562421
2026-09-05T
05:17:51+0000
1.186 km
极远距离
1.297537E-5 中风险 0.57
CDM_260904-224105-209306-472921
2026-09-04T
22:41:59+0000
2.120 km
极远距离
1.655253E-6 低风险 0.39
CDM_260903-032005-113205-209321
2026-09-03T
03:20:37+0000
2.537 km
极远距离
1.473044E-6 低风险 0.38
CDM_260903-043405-209306-223221
2026-09-03T
04:34:15+0000
2.581 km
极远距离
1.34854E-6 低风险 0.38
CDM_260904-033605-173905-209321
2026-09-04T
03:36:26+0000
2.868 km
极远距离
1.193687E-6 低风险 0.37
CDM_260904-193405-209306-472921
2026-09-04T
19:34:24+0000
2.876 km
极远距离
9.722526E-7 极低风险 0.35
CDM_260828-135405-209305-246821
2026-08-28T
13:54:27+0000
2.696 km
极远距离
5.831055E-7 极低风险 0.3